This demonstration page uses our WeatherBlox Daily Observations layout. Learn more.

Left ArrowRight Arrow

Hourly Observations for November 2, 2015

Temp ( °F °C ) Dew Point ( °F °C ) Humidity (%) Winds ( mph kmh ) Pressure ( in mb ) Visibility ( mi km ) Precip ( " mm )
12:53 am 00:53 Clear 54 12.2 39 3.9 57 57 SSW 8 13 29.80 1009 10 16 0.00 0.00
1:53 am 01:53 Clear 54 12.2 39 3.9 57 57 SSW 10 17 29.80 1009 10 16 0.00 0.00
2:53 am 02:53 Clear 52 11.1 39 3.9 61 61 SW 8 13 29.80 1009 10 16 0.00 0.00
3:53 am 03:53 Clear 51 10.6 39 3.9 64 64 SSW 9 15 29.79 1009 10 16 0.00 0.00
4:53 am 04:53 Clear 50 10 39 3.9 66 66 SSW 8 13 29.80 1009 10 16 0.00 0.00
5:53 am 05:53 Clear 49 9.4 39 3.9 69 69 SSW 7 11 29.81 1010 10 16 0.00 0.00
6:53 am 06:53 Clear 47 8.3 39 3.9 74 74 S 5 7 29.81 1010 10 16 0.00 0.00
7:53 am 07:53 Sunny 48 8.9 40 4.4 74 74 SSW 8 13 29.83 1010 10 16 0.00 0.00
8:53 am 08:53 Sunny 53 11.7 41 5 64 64 W 7 11 29.86 1011 10 16 0.00 0.00
9:53 am 09:53 Sunny 59 15 43 6.1 56 56 VRB 3 6 29.87 1012 10 16 0.00 0.00
10:53 am 10:53 Sunny 65 18.3 43 6.1 45 45 S 7 11 29.85 1011 10 16 0.00 0.00
11:53 am 11:53 Sunny 70 21.1 43 6.1 38 38 SSW 9 15 29.84 1011 10 16 0.00 0.00
12:53 pm 12:53 Sunny 75 23.9 41 5 29 29 S 10 17 29.81 1009 10 16 0.00 0.00
1:53 pm 13:53 Sunny 77 25 39 3.9 26 26 SSW 10 17 29.79 1009 10 16 0.00 0.00
2:53 pm 14:53 Sunny 77 25 40 4.4 26 26 SSW 12 19 29.78 1009 10 16 0.00 0.00
3:53 pm 15:53 Sunny 76 24.4 38 3.3 25 25 S 9 15 29.79 1009 10 16 0.00 0.00
4:53 pm 16:53 Sunny 73 22.8 40 4.4 30 30 S 10 17 29.80 1009 10 16 0.00 0.00
5:53 pm 17:53 Clear 67 19.4 41 5 39 39 SSE 9 15 29.82 1010 10 16 0.00 0.00
6:53 pm 18:53 Clear 64 17.8 40 4.4 41 41 SSE 6 9 29.83 1010 10 16 0.00 0.00
7:53 pm 19:53 Clear 62 16.7 40 4.4 44 44 SSE 13 20 29.84 1011 10 16 0.00 0.00
8:53 pm 20:53 Clear 59 15 42 5.6 54 54 S 10 17 29.83 1010 10 16 0.00 0.00
9:53 pm 21:53 Clear 57 13.9 43 6.1 60 60 S 10 17 29.84 1011 10 16 0.00 0.00
10:53 pm 22:53 Clear 55 12.8 44 6.7 67 67 SSE 8 13 29.84 1011 10 16 0.00 0.00
11:53 pm 23:53 Clear 55 12.8 45 7.2 69 69 S 9 15 29.83 1010 10 16 0.00 0.00

Powered by AerisWeather